Change the Weather History Date:

Sunday, June 2, 2013

  Actual Average Record
Temperature  
Mean Temperature 78 °F -  
Max Temperature 82 °F 79 °F 92 °F (2002)
Min Temperature 73 °F 63 °F 53 °F (2003)
Cooling Degree Days 12    
Growing Degree Days 28 (Base 50)    
Moisture  
Dew Point 70 °F    
Average Humidity 82    
Maximum Humidity 89    
Minimum Humidity 70    
Precipitation  
Precipitation 0.00 in - - ()
Sea Level Pressure  
Sea Level Pressure 30.04 in    
Wind  
Wind Speed 10 mph (South)    
Max Wind Speed 17 mph    
Max Gust Speed 23 mph    
Visibility 10 miles    
Events      
Averages and records for this station are not official NWS values.
T = Trace of Precipitation, MM = Missing Value Source: NWS Daily Summary

Daily Weather History Graph

Daily Weather History Graph

Search for Another Location

Airport or City:

Trip Planner

Search our weather history database for the weather conditions in past years. The results will help you decide how hot, cold, wet, or windy it might be!

Date:

Astronomy

Jun. 02, 2013 Rise Set
Actual Time 6:05 AM EDT 8:21 PM EDT
Civil Twilight 5:37 AM EDT 8:50 PM EDT
Nautical Twilight 5:02 AM EDT 9:25 PM EDT
Astronomical Twilight 4:24 AM EDT 10:03 PM EDT
Moon 2:16 AM EDT (6/2) 3:04 PM EDT (6/2)
Length of Visible Light 15h 13m
Length of Day
14h 15m
Waning Crescent, 31% of the Moon is Illuminated
Jun 2
Waning Crescent
Jun 8
New
Jun 16
First Quarter
Jun 23
Full
Jun 30
Last Quarter

Hourly Weather History & Observations

Time (EDT) Temp. Heat Index Dew Point Humidity Pressure Visibility Wind Dir Wind Speed Gust Speed Precip Events Conditions
12:15 AM 75.2 °F - 68.0 °F 78% 30.13 in 10.0 mi South 6.9 mph - N/A   Clear
12:35 AM 75.2 °F - 68.0 °F 78% 30.12 in 10.0 mi South 9.2 mph - N/A   Clear
12:55 AM 75.2 °F - 68.0 °F 78% 30.12 in 10.0 mi South 9.2 mph - N/A   Clear
1:15 AM 75.2 °F - 69.8 °F 83% 30.11 in 10.0 mi South 9.2 mph - N/A   Clear
1:35 AM 75.2 °F - 69.8 °F 83% 30.11 in 10.0 mi South 8.1 mph - N/A   Clear
1:55 AM 73.4 °F - 68.0 °F 83% 30.10 in 10.0 mi South 8.1 mph - N/A   Clear
2:15 AM 73.4 °F - 69.8 °F 88% 30.09 in 10.0 mi South 6.9 mph - N/A   Clear
2:35 AM 73.4 °F - 69.8 °F 88% 30.08 in 10.0 mi South 8.1 mph - N/A   Clear
2:55 AM 73.4 °F - 69.8 °F 88% 30.07 in 10.0 mi South 8.1 mph - N/A   Clear
3:15 AM 73.4 °F - 69.8 °F 88% 30.06 in 10.0 mi South 8.1 mph - N/A   Clear
3:35 AM 73.4 °F - 69.8 °F 88% 30.06 in 10.0 mi South 6.9 mph - N/A   Clear
3:55 AM 73.4 °F - 69.8 °F 88% 30.05 in 10.0 mi South 9.2 mph - N/A   Clear
4:15 AM 73.4 °F - 69.8 °F 88% 30.04 in 10.0 mi South 9.2 mph - N/A   Clear
4:35 AM 73.4 °F - 68.0 °F 83% 30.04 in 10.0 mi South 9.2 mph - N/A   Clear
4:55 AM 73.4 °F - 68.0 °F 83% 30.04 in 10.0 mi South 8.1 mph - N/A   Clear
5:15 AM 73.4 °F - 69.8 °F 88% 30.04 in 10.0 mi South 5.8 mph - N/A   Clear
5:35 AM 73.4 °F - 69.8 °F 88% 30.04 in 10.0 mi South 6.9 mph - N/A   Clear
5:55 AM 73.4 °F - 69.8 °F 88% 30.03 in 10.0 mi South 8.1 mph - N/A   Clear
6:50 AM 73.4 °F - 69.8 °F 88% 30.04 in 10.0 mi SSW 8.1 mph - N/A   Clear
7:50 AM 77.0 °F - 69.8 °F 78% 30.05 in 10.0 mi SSW 8.1 mph - N/A   Clear
8:45 AM 78.8 °F - 69.8 °F 74% 30.05 in 10.0 mi South 11.5 mph - N/A   Scattered Clouds
9:45 AM 80.6 °F 83.9 °F 69.8 °F 70% 30.06 in 10.0 mi South 11.5 mph - N/A   Scattered Clouds
10:45 AM 80.6 °F 84.6 °F 71.6 °F 74% 30.07 in 10.0 mi South 13.8 mph 23.0 mph N/A   Scattered Clouds
11:47 AM 82.4 °F 87.2 °F 71.6 °F 70% 30.05 in 10.0 mi South 11.5 mph 18.4 mph N/A   Scattered Clouds
12:47 PM 80.6 °F 84.6 °F 71.6 °F 74% 30.05 in 10.0 mi South 15.0 mph 20.7 mph N/A   Scattered Clouds
1:45 PM 82.4 °F 87.2 °F 71.6 °F 70% 30.04 in 10.0 mi South 17.3 mph - N/A   Scattered Clouds
2:45 PM 82.4 °F 87.2 °F 71.6 °F 70% 30.02 in 10.0 mi South 16.1 mph 21.9 mph N/A   Scattered Clouds
3:45 PM 82.4 °F 87.2 °F 71.6 °F 70% 30.00 in 10.0 mi South 15.0 mph - N/A   Scattered Clouds
4:45 PM 80.6 °F 84.6 °F 71.6 °F 74% 29.95 in 10.0 mi South 17.3 mph - N/A   Scattered Clouds
5:45 PM 80.6 °F 84.6 °F 71.6 °F 74% 29.97 in 10.0 mi South 17.3 mph - N/A   Scattered Clouds
6:50 PM 78.8 °F - 71.6 °F 78% 29.98 in 10.0 mi South 15.0 mph - N/A   Scattered Clouds
8:45 PM 75.2 °F - 69.8 °F 83% 29.99 in 10.0 mi South 16.1 mph - N/A   Mostly Cloudy
9:50 PM 75.2 °F - 71.6 °F 89% 29.98 in 10.0 mi South 8.1 mph - N/A   Clear
10:55 PM 75.2 °F - 71.6 °F 89% 29.99 in 10.0 mi SSE 13.8 mph - N/A   Partly Cloudy
11:15 PM 75.2 °F - 71.6 °F 89% 30.00 in 10.0 mi SSE 12.7 mph - N/A   Partly Cloudy
11:35 PM 75.2 °F - 71.6 °F 89% 29.99 in 10.0 mi South 16.1 mph - N/A   Partly Cloudy
11:55 PM 75.2 °F - 71.6 °F 89% 29.99 in 10.0 mi South 13.8 mph - N/A   Partly Cloudy